Location: Joplin, MO
(37.0842°N, 94.5133°W)
Time: 22:29:32
(UTC+02:00)

Transit 2A Rocket - Pass Details

Date: 29 March 2023
Orbit: 584 x 914 km, 66.7° (Epoch: 06 June)

Event Time Altitude Azimuth Distance (km) Brightness Sun altitude
Rises 19:06:51 0° 231° (SW) 3,225 8.3 52.1°
Reaches altitude 10° 19:09:20 10° 239° (WSW) 2,354 7.7 52.4°
Maximum altitude 19:14:21 36° 306° (NW) 1,296 6.3 52.9°
Drops below altitude 10° 19:19:46 10° 13° (NNE) 2,542 7.5 53.4°
Sets 19:22:33 0° 21° (NNE) 3,516 8.2 53.7°
